Weather Roundup
Issued by NWS Chicago, IL

Home | Current Version | Previous Version | Graphics & Text | Print | Product List | Glossary On
Versions: 1 2 3 4 5 6 7 8 9 10 11 12 13 14 15 16 17 18 19 20 21 22 23 24 25 26 27 28 29 30 31 32 33 34 35 36 37 38 39 40 41 42 43 44 45 46 47 48 49 50
000
NZUS59 KLOT 010058
HRRLOT

CHICAGO AREA WEATHER ROUNDUP
NATIONAL WEATHER SERVICE CHICAGO/ROMEOVILLE IL
700 PM CST SAT FEB 28 2015

NOTE: "FAIR" INDICATES FEW OR NO CLOUDS BELOW 12,000 FEET WITH NO
SIGNIFICANT WEATHER AND/OR OBSTRUCTIONS TO VISIBILITY.

* THESE STATIONS ARE NOT UNDER NWS QUALITY CONTROL. THEY ALSO MAY NOT
  REPORT WEATHER SUCH AS PRECIPITATION OR FOG.

ILZ005-006-012>014-019>023-010200-
NORTHEAST ILLINOIS

CITY           SKY/WX    TMP DP  RH WIND       PRES   REMARKS
OHARE          CLOUDY    20   4  50 S8        30.53R WCI  10
MIDWAY         NOT AVBL
AURORA         LGT SNOW  19   9  65 SE9       30.53S WCI   8
WAUKEGAN       NOT AVBL
DUPAGE AIRPORT LGT SNOW  18   9  68 S8        30.52S WCI   8
WHEELING       CLOUDY    20   7  57 SE7       30.55R WCI  11
NORTHERLY IS     N/A     21   7  54 S9          N/A  WCI  11
$$

WIZ051-052-058>065-066-070>072-010200-
SOUTHEAST WISCONSIN

CITY           SKY/WX    TMP DP  RH WIND       PRES   REMARKS
MILWAUKEE      CLOUDY    18   6  59 S6        30.52F WCI  10
WAUKESHA       CLOUDY    16   0  48 CALM      30.50F
$$

INZ001>003-010>013-019-020-010200-
NORTHWEST INDIANA

CITY           SKY/WX    TMP DP  RH WIND       PRES   REMARKS
GARY*          CLOUDY    23   1  39 S7        30.56R WCI  15
MICHIGAN CITY* NOT AVBL
RENSSELAER*    NOT AVBL
$$

LMZ740>746-010200-
SOUTHERN LAKE MICHIGAN

STATION/POSITION TIME  SKY/WX   TEMP WIND        PRES    VSBY
                                AIR  DIR/SP/G
                 (UTC)          (F)  (DEG/KT/KT) (MB)    (MI)
HARRISON CRIB    0000            20  120/ 13/ 15   N/A
BURNHAM HARBOR   0000            21  170/  9/ 11   N/A
CALUMET HARBOR   0000            21  120/  7/  9 1032.6F
BURNS HARBOR     NOT AVBL
MICHIGAN CITY    0000            20   70/  8/  9   N/A
$$

ABBREVIATIONS USED IN REMARKS
   TC - TEMPERATURE IN CELSIUS
  WCI - WIND CHILL INDEX
   HX - HEAT INDEX
  VSB - VISIBILITY
$$



USA.gov is the U.S. government's official web portal to all federal, state and local government web resources and services.